Powrót do katalogu

FENGYUN 1C DEB *

AktywnyPO
NORAD 46993·DEBRIS·🇨🇳 China

Wystrzelony May 10, 1999 z Taiyuan Satellite Launch Center

Loading…

Następne Przeloty (najbliższe 24 godziny)

TLE

ŚwieżeSource: Space-Track

Epoka: Sep 13, 2026, 02:51 UTC

1 46993U 99025EZT 26256.11909788  .00000293  00000-0  30231-3 0  9996
2 46993  98.7392 354.2641 0261541 292.8491 189.3926 13.69388242640127

Śledź FENGYUN 1C DEB * w czasie rzeczywistym z AllMySat

Download on the App Store